www.pogodaiklimat.ru
Время
и дата
01:18 05.12
01:28 05.12
01:34 05.12
01:43 05.12
01:54 05.12
02:03 05.12
02:10 05.12
02:17 05.12
02:30 05.12
02:38 05.12
02:45 05.12
02:54 05.12
03:20 05.12
03:27 05.12
03:54 05.12
04:54 05.12
05:33 05.12
05:43 05.12
05:54 05.12
06:15 05.12
06:25 05.12
06:54 05.12
07:54 05.12
08:54 05.12
09:03 05.12
09:34 05.12
09:54 05.12
10:54 05.12
11:54 05.12
12:54 05.12
13:54 05.12
14:54 05.12
15:54 05.12
16:54 05.12
17:54 05.12
18:54 05.12
19:44 05.12
19:54 05.12
20:54 05.12
21:05 05.12
21:54 05.12
22:54 05.12
23:22 05.12
23:31 05.12
23:54 05.12
00:54 06.12
01:54 06.12
02:54 06.12
Ветер
(напр.,м/с)
Видим. Явления Облачность Т
(С)
Тd
(С)
f
(%)
Тe
(С)
Тes
(С)
Комфортность P
(гПа)
Po
(гПа)
Тmin
(С)
Tmax
(С)
R
(мм)
R24
(мм)
S
(см)
штиль 0 400 м туман 10/10 60 м +12.8 +11.7 93 +12 +12 1006.9
штиль 0 1 км дымка 10/10 30 м +13.3 +12.8 97 +13 +13 1006.6
штиль 0 3 км дымка 10/10 30 м +13.3 +12.8 97 +13 +13 1006.6
штиль 0 10 км дымка 8/8 1080 м +13.3 +12.2 93 +13 +13 1006.6
штиль 0 10 км дымка 8/8 1080 м +13.3 +12.8 97 +13 +13 1018.9 1006.6
штиль 0 8 км дымка 5/5 120 м +13.3 +12.2 93 +13 +13 1006.6
штиль 0 2 км дымка 8/8 120 м +12.8 +12.2 96 +12 +12 1006.6
штиль 0 1 км дымка 8/8 120 м +12.8 +11.7 93 +12 +12 1006.6
штиль 0 3 км дымка 10/10 60 м +13.3 +12.8 97 +13 +13 1006.6
штиль 0 4 км дымка 8/8 60 м +13.9 +12.8 93 +13 +13 1006.6
штиль 0 8 км дымка 10/10 30 м +13.3 +12.8 97 +13 +13 1006.6
штиль 0 10 км дымка 10/10 900 м +13.3 +12.8 97 +13 +13 1018.9 1006.6
штиль 0 11 км 8/8 780 м +13.3 +12.2 93 +13 +13 1006.6
штиль 0 8 км дымка 8/8 780 м +13.9 +12.8 93 +13 +13 1006.6
ЮВ 1 6 км дымка 8/8 900 м +12.8 +12.2 96 +12 +12 1018.9 1006.6
Ю 1 8 км дымка 5/5 1500 м +14.4 +13.3 93 +14 +14 1018.4 1005.9
Ю 1 4 км дымка ясно +13.3 +12.8 97 +12 +12 1006.2
Ю 1 8 км дымка ясно +13.9 +13.3 96 +13 +13 1006.2
ЮВ 1 6 км дымка 2/2 450 м +13.9 +13.3 96 +13 +13 1018.6 1006.2 +11.7 +15.0
штиль 0 3 км дымка 2/2 450 м +13.3 +12.8 97 +13 +13 1006.2
ЮВ 1 6 км дымка 2/2 450 м +13.9 +12.8 93 +13 +13 1006.2
Ю 1 6 км дымка 2/2 450 м +15.0 +13.9 93 +14 +14 1018.8 1006.2
Ю 1 6 км дымка 2/2 1380 м +16.1 +14.4 90 +16 +16 1019.1 1006.6
ЮЗ 1 14 км 2/2 1380 м +18.9 +16.1 84 +21 +21 комфорт 1019.3 1006.9
ЮЗ 1 16 км 8/8 870 м +18.9 +16.1 84 +21 +21 комфорт 1006.9
ЮЗ 1 16 км 10/10 1260 м +19.4 +16.1 81 +22 +22 комфорт 1006.9
ЮВ 1 16 км 8/8 1290 м +20.6 +16.7 78 +25 +25 комфорт 1019.1 1006.6
Ю 3 16 км 2/2 750 м +23.9 +14.4 55 +26 +28 жарко 1018.5 1006.2
Ю 3
{4}
16 км 2/2 750 м +24.4 +13.9 52 +27 +29 жарко 1016.9 1004.5 +13.3 +24.4
ЮЗ 4
{4}
16 км 2/2 1080 м +25.0 +14.4 52 +28 +29 жарко 1016.2 1003.9
Ю 3
{5}
16 км 8/8 840 м
[Ci]
+23.3 +15.6 62 +28 +28 душно 1015.6 1003.2
Ю 3 16 км 5/5 840 м
[Ci]
+23.3 +15.0 60 +27 +28 душно 1015.2 1002.9
Ю 3 16 км 8/2 900 м
[Ac Ci]
+22.8 +15.0 61 +27 +27 душно 1014.8 1002.5
Ю 2 16 км 5/0 3000 м
[Ac Ci]
+21.1 +15.6 71 +24 +25 комфорт 1014.6 1002.2
Ю 1 16 км ясно +18.9 +15.0 78 +20 +20 1014.9 1002.5 +18.9 +25.0
Ю 1 16 км 2/2 1050 м +18.3 +15.0 81 +19 +19 1015.5 1003.2
Ю 1 16 км 8/8 780 м +19.4 +16.1 81 +22 +22 комфорт 1003.5
Ю 1 16 км 10/10 750 м +18.9 +16.1 84 +21 +21 комфорт 1016.0 1003.5
Ю 2 16 км 8/8 690 м +20.0 +16.7 81 +23 +23 комфорт 1015.8 1003.5
Ю 2 16 км 5/5 690 м +20.0 +16.7 81 +23 +23 комфорт 1003.2
Ю 3 16 км 2/2 900 м +20.0 +16.7 81 +22 +22 комфорт 1014.8 1002.5
Ю 2 16 км 2/2 390 м +20.0 +16.7 81 +23 +23 комфорт 1014.9 1002.5
Ю 2 16 км 8/8 450 м +19.4 +16.7 84 +21 +21 комфорт 1002.5
Ю 3 16 км 8/8 390 м +20.0 +16.7 81 +22 +22 комфорт 1002.2
Ю 3 16 км 10/10 390 м +19.4 +17.2 87 +21 +21 комфорт 1014.6 1002.2 +17.8 +20.0
Ю 2 16 км 10/10 330 м +20.0 +17.2 84 +23 +23 комфорт 1014.6 1002.2
Ю 3 16 км 10/10 360 м +20.0 +17.2 84 +23 +23 комфорт 1014.5 1002.2
ЮЗ 2 16 км 10/10 420 м +20.0 +16.7 81 +23 +23 комфорт 1015.8 1003.5
Местоположение метеостанции Jackson International Airport: широта 32.3197 долгота -90.0775 высота над уровнем моря 105 м.
В архиве по умолчанию представлена погода в Джексоне за последние 1-2 суток. Обновление информации о фактической погоде в базе происходит ежечасно! Архивные данные за месяц целиком и за предыдущие месяцы Вы можете получить, выбрав интересующий диапазон дат из раскрывающегося списка и нажав кнопку "Ввод!".
Внимание! Архив погоды МЕТАР в базе сайта по станциям, не включенным в климатический монитор, хранится не более 60 дней. Нет смысла пытаться выбрать более раннюю дату.
*Определитесь, кто Вы:
Внимание! Время в таблицах - местное (без учета летнего времени). Для получения всемирного времени необходимо вычесть поправку, которая равна -6 ч.
Смотрите также архив погоды в соседних городах и на ближайших метеорологических станциях:
Партнеры нашего сайта:      
Пояснения к столбцам:
  • Ветер - указаны скорость ветра в м/с - средняя за 10 мин, порывы в срок и между сроками (в фигурных скобках) и направление, откуда дует ветер: С - северный,
  • СВ - северо-восточный, В - восточный, ЮВ - юго-восточный, Ю - южный, ЮЗ - юго-западный, З - западный, СЗ - северо-западный.
  • Видимость - горизонтальная дальность видимости в метрах или километрах. При видимости от 1 до 10 км при отсутствии осадков обычно наблюдается дымка, при ухудшении видимости до 1 км и менее - туман. В сухую погоду видимость может ухудшаться дымом, пылью или мглою.
  • Явления - указаны атмосферные явления, наблюдавшиеся в срок или в последний час перед сроком; фигурными скобками обозначены явления, наблюдавшиеся между сроками (за 1-3 часа до срока); квадратными скобками обозначены град или гололедные отложения с указанием их диаметра в мм.
  • Облачность - указаны через наклонную черту общая и нижняя облачность в баллах и высота нижней границы облаков в метрах; квадратными скобками обозначены формы облаков: Ci - перистые, Cs - перисто-слоистые, Cc - перисто-кучевые, Ac - высококучевые, As - высокослоистые, Sc - слоисто-кучевые, Ns - слоисто-дождевые, Cu - кучевые, Cb - кучево-дождевые. Подробнее классификацию облаков см. в Атласе облаков (PDF).
  • T - Температура воздуха - температура, измеренная на высоте 2 м над землей.
  • Td - Температура точки росы - температура, при понижении до которой содержащийся в воздухе водяной пар достигнет насыщения.
  • f - Относительная влажность воздуха - влажноcть воздуха, измеренная на высоте 2 м над землей.
  • Te - Эффективная температура - температура, которую ощущает одетый по сезону человек в тени. Характеристика душности погоды. При расчете учитывается влияние влажности воздуха и скорости ветра на теплоощущения человека.
  • Tes - Эффективная температура на солнце - температура, которую ощущает человек, с поправкой на солнечный нагрев. Характеристика знойности погоды. Зависит от высоты солнца над горизонтом, облачности и скорости ветра. Ночью, в пасмурную погоду, а также при ветре 12 м/с и более поправка равна нулю.
  • P - Атмосферное давление - приведенное к уровню моря атмосферное давление.
  • Po - Атмосферное давление - измеренное на уровне метеостанции атмосферное давление.
  • Tmin - Минимальная температура - минимум температуры воздуха на высоте 2 м над землей.
  • Tmax - Максимальная температура - максимум температуры воздуха на высоте 2 м над землей.
  • R - Количество осадков - Количество выпавших осадков за период времени, мм. При наведении курсора мыши на число - период времени, за который выпало указанное количество осадков.
  • R24 - Количество осадков - Количество выпавших осадков за 24 часа, мм.
  • S - Снежный покров - Высота снежного покрова, см. При наведении курсора мыши на число - состояние снежного покрова и степень покрытия местности в баллах.